FW6870 Weather Reports


time (UTC)temp
F
wind
direction
speed
knots
gust
knots
rain 1hr
in
rain 24hr
in
rain mn
in
humidity
%
barometer
mb
20260506181531 72 299 2.6 7.0 0.00 0.03 0.03 83 1015.0
20260506180039 70 290 1.7 7.8 0.00 0.03 0.03 83 1015.0
20260506174529 70 267 3.5 7.8 0.00 0.03 0.03 83 1015.1
20260506173027 69 225 3.5 6.1 0.03 0.03 0.03 87 1015.1
20260506171543 68 287 2.6 6.1 0.03 0.03 0.03 86 1015.5
20260506170026 68 307 1.7 5.2 0.03 0.03 0.03 87 1015.9
20260506164528 68 250 1.7 7.0 0.03 0.03 0.03 84 1015.7
20260506163034 68 221 7.8 13.0 0.00 0.00 0.00 82 1016.5
20260506161539 68 255 7.8 10.4 0.00 0.00 0.00 80 1016.6
20260506160029 68 277 6.1 13.0 0.00 0.00 0.00 80 1016.4
20260506154530 68 288 6.1 10.4 0.00 0.00 0.00 81 1016.1
20260506153028 68 221 6.1 11.3 0.00 0.00 0.00 81 1015.9
20260506151528 68 236 7.0 13.0 0.00 0.00 0.00 81 1015.7
20260506150029 67 248 4.3 8.7 0.00 0.00 0.00 81 1015.8
20260506144529 67 243 7.0 12.2 0.00 0.00 0.00 81 1015.4
20260506143028 66 244 7.8 11.3 0.00 0.00 0.00 80 1015.4
20260506141528 66 238 7.0 12.2 0.00 0.00 0.00 80 1015.1
20260506140026 66 236 5.2 12.2 0.00 0.00 0.00 80 1014.9
20260506134602 65 238 7.0 12.2 0.00 0.00 0.00 79 1015.1
20260506133026 65 216 5.2 12.2 0.00 0.00 0.00 79 1015.1
20260506131532 64 227 5.2 9.6 0.00 0.00 0.00 78 1015.0
20260506130030 64 213 4.3 9.6 0.00 0.00 0.00 78 1015.2
20260506124529 64 240 5.2 9.6 0.00 0.00 0.00 78 1015.2
20260506123030 64 240 3.5 9.6 0.00 0.00 0.00 77 1015.0
20260506121527 64 265 5.2 8.7 0.00 0.00 0.00 76 1015.1
20260506120028 64 261 3.5 9.6 0.00 0.00 0.00 75 1014.6
20260506114535 64 234 3.5 7.0 0.00 0.00 0.00 74 1014.5
20260506113033 64 257 1.7 6.1 0.00 0.00 0.00 73 1014.8
20260506111530 63 235 3.5 7.8 0.00 0.00 0.00 73 1014.7
20260506110026 64 202 2.6 5.2 0.00 0.00 0.00 72 1014.4
20260506104526 64 206 3.5 6.1 0.00 0.00 0.00 71 1014.4
20260506103032 64 210 4.3 7.8 0.00 0.00 0.00 70 1014.2
20260506101530 64 213 5.2 9.6 0.00 0.00 0.00 70 1014.0
20260506100034 64 211 6.1 10.4 0.00 0.00 0.00 69 1013.7
20260506094528 64 221 7.8 12.2 0.00 0.00 0.00 68 1013.8
20260506093028 64 216 7.0 12.2 0.00 0.00 0.00 66 1013.9
20260506091528 65 223 7.0 12.2 0.00 0.00 0.00 65 1013.8
20260506090027 65 216 7.8 14.8 0.00 0.00 0.00 64 1013.8
20260506084530 65 213 8.7 13.0 0.00 0.00 0.00 63 1014.0
20260506083027 65 207 7.8 13.9 0.00 0.00 0.00 64 1014.0
20260506081531 65 200 6.1 13.0 0.00 0.00 0.00 64 1014.2
20260506073033 66 213 5.2 9.6 0.00 0.00 0.00 62 1014.2
20260506071527 66 232 5.2 9.6 0.00 0.00 0.00 61 1014.3
20260506061535 67 240 6.1 9.6 0.00 0.00 0.00 61 1014.4
20260506044526 68 244 4.3 7.8 0.00 0.00 0.00 59 1014.7
20260506043027 69 257 5.2 7.8 0.00 0.00 0.00 58 1014.8
20260506041526 69 245 5.2 10.4 0.00 0.00 0.00 57 1014.7
20260506040029 69 242 5.2 8.7 0.00 0.00 0.00 56 1014.7
20260506034530 69 232 5.2 10.4 0.00 0.00 0.00 56 1014.8
20260506033028 70 246 7.0 13.0 0.00 0.00 0.00 54 1014.7
20260506031536 70 228 7.8 11.3 0.00 0.00 0.00 55 1014.6
20260506030030 70 207 7.8 12.2 0.00 0.00 0.00 55 1014.7
20260506024538 70 222 7.0 10.4 0.00 0.00 0.00 55 1014.6
20260506023028 70 227 7.0 10.4 0.00 0.00 0.00 55 1014.7
20260506021528 71 223 6.1 10.4 0.00 0.00 0.00 54 1014.6
20260506020028 71 221 7.0 10.4 0.00 0.00 0.00 54 1014.3
20260506014528 72 216 7.0 11.3 0.00 0.00 0.00 54 1014.1
20260506013031 72 225 5.2 7.8 0.00 0.00 0.00 54 1014.3
20260506011557 72 227 4.3 6.1 0.00 0.00 0.00 54 1014.4
20260506010027 72 227 3.5 6.1 0.00 0.00 0.00 53 1014.4
20260506004528 73 223 5.2 8.7 0.00 0.00 0.00 52 1014.3
20260506003027 73 213 5.2 8.7 0.00 0.00 0.00 51 1014.3
20260506001529 73 225 4.3 7.0 0.00 0.00 0.00 51 1014.2
20260506000044 73 246 3.5 6.1 0.00 0.00 0.00 50 1014.3
20260505234538 74 215 4.3 7.8 0.00 0.00 0.00 49 1014.2
20260505233027 74 233 4.3 8.7 0.00 0.00 0.00 48 1014.2
20260505231530 74 231 3.5 12.2 0.00 0.00 0.00 47 1014.3
20260505230048 75 246 7.0 14.8 0.00 0.00 0.00 46 1014.1
20260505224537 76 223 7.0 13.0 0.00 0.00 0.00 45 1014.2
20260505223027 76 210 4.3 13.0 0.00 0.00 0.00 43 1014.1
20260505221526 77 224 7.0 13.9 0.00 0.00 0.00 42 1014.0
20260505220027 77 247 5.2 13.9 0.00 0.00 0.00 43 1014.0
20260505214531 77 222 5.2 15.6 0.00 0.00 0.00 42 1014.1
20260505213027 76 213 9.6 16.5 0.00 0.00 0.00 41 1014.2
20260505211532 76 203 8.7 16.5 0.00 0.00 0.00 42 1014.3
20260505210029 76 198 7.0 19.1 0.00 0.00 0.00 42 1014.4
20260505203028 76 218 5.2 13.9 0.00 0.00 0.00 43 1014.5
20260505201530 76 227 7.0 13.9 0.00 0.00 0.00 43 1014.7
20260505200026 76 215 7.8 12.2 0.00 0.00 0.00 44 1014.9
20260505194534 76 227 7.0 16.5 0.00 0.00 0.00 43 1015.1
20260505193026 76 262 5.2 14.8 0.00 0.00 0.00 43 1015.3
20260505191528 76 182 7.8 14.8 0.00 0.00 0.00 43 1015.5
20260505190036 75 193 6.1 14.8 0.00 0.00 0.00 41 1015.8
20260505184534 75 206 10.4 19.1 0.00 0.00 0.00 42 1016.0
20260505183031 75 248 8.7 12.2 0.00 0.00 0.00 45 1016.2